Location: Bremen
(53.0793°N, 8.8017°E)
Time: 12:49:11
(UTC+02:00)

Transit 2A Rocket - Pass Details

Date: 21 June 2024
Orbit: 582 x 910 km, 66.7° (Epoch: 19 July)

Event Time Altitude Azimuth Distance (km) Brightness Sun altitude
Rises 04:01:45 0° 313° (NW) 3,413 8.5 -6.4°
Reaches altitude 10° 04:04:30 10° 324° (NW) 2,518 7.9 -6.2°
Maximum altitude 04:09:39 30° 25° (NNE) 1,557 7.6 -5.7°
Drops below altitude 10° 04:14:56 10° 85° (E) 2,600 8.4 -5.2°
Sets 04:17:49 0° 96° (E) 3,542 8.9 -5.0°
